Tracking 19279 objects as of 14-Nov-2018
HD Live streaming from Space Station
objects crossing your sky now

BS-3B (YURI 3B)

Track BS-3B (YURI 3B) now!
BS-3B (YURI 3B) is classified as:


NORAD ID: 21668
Int'l Code: 1991-060A
Perigee: 36,209.8 km
Apogee: 36,219.2 km
Inclination: 13.2 °
Period: 1,457.6 minutes
Semi major axis: 42585 km
RCS: 1.6 m2 (large)
Launch date: August 25, 1991
Source: Japan (JPN)
Launch site: TANEGASHIMA SPACE CENTER (TNSTA)
aabbcc
Your satellite tracking list
Your tracking list is empty




NASA's NSSDC Master Catalog

Two Line Element Set (TLE):
1 21668U 91060A   18317.73259739 +.00000036 +00000-0 +00000-0 0  9993
2 21668 013.2439 016.0115 0001106 181.7006 178.2735 00.98789397101928
Source of the keplerian elements: AFSPC